Regional Weather Roundup
Issued by NWS Glasgow, MT

Home | Current Version | Previous Version | Text Only | Print | Product List | Glossary On
Versions: 1 2 3 4 5 6 7 8 9 10 11 12 13 14 15 16 17 18 19 20 21 22 23 24 25 26 27 28 29 30 31 32 33 34 35 36 37 38 39 40 41 42 43 44 45 46 47 48 49
000
ASUS45 KGGW 011215
RWRGGW
HOURLY WEATHER ROUNDUP FOR NORTHEAST MONTANA
NATIONAL WEATHER SERVICE GLASGOW MONTANA
600 AM MDT WED OCT 01 2014

NOTE: "FAIR" INDICATES FEW OR NO CLOUDS BELOW 12,000 FEET WITH NO
SIGNIFICANT WEATHER AND/OR OBSTRUCTIONS TO VISISBILITY.

NORTHEAST MONTANA


CITY           SKY/WX    TMP DP  RH WIND       PRES   REMARKS
GLASGOW        CLOUDY    49  45  86 W14G24    29.71R
6HR MIN TEMP:  49; 6HR MAX TEMP:  54; 6HR PCP: TRACE;

PLENTYWOOD       N/A     52  49  89 NW15        N/A
WOLF POINT     CLOUDY    53  47  79 W18       29.69R
JORDAN           N/A     48  42  80 W18G26    29.78R
WINNETT          N/A     48  37  65 W12         N/A
SIDNEY         CLOUDY    54  48  82 W15G23    29.66R
GLENDIVE       CLOUDY    50  46  87 W16G26    29.72R
MALTA            N/A     49  46  90 W9          N/A
OPHEIM           N/A     45  45 100 W15       29.52R

FORT PECK REPORTS


CITY           SKY/WX    TMP DP  RH WIND       PRES   REMARKS
FORT PECK        N/A     48  46  93 W21         N/A
THE PINES        N/A     48  43  82 W14G26      N/A

SOUTHEAST MONTANA


CITY           SKY/WX    TMP DP  RH WIND       PRES   REMARKS
BILLINGS       MOCLDY    48  36  63 W15       29.90R
MILES CITY     CLOUDY    51  41  68 NW18G28   29.79R
BAKER          CLOUDY    49  47  93 W20G26    29.74R
LIVINGSTON     PTCLDY    41  32  70 W13       29.95R

CENTRAL MONTANA


CITY           SKY/WX    TMP DP  RH WIND       PRES   REMARKS
HAVRE          CLOUDY    45  40  82 W12       29.86R
LEWISTOWN      CLOUDY    44  39  82 W8        29.90R
GREAT FALLS    LGT RAIN  43  41  93 SW9       29.93R
CUT BANK       PTCLDY    38  34  85 W9        29.92R
HELENA         LGT RAIN  47  36  65 W8        29.96R
BUTTE          LGT RAIN  37  33  85 CALM      30.02R
BOZEMAN        CLOUDY    40  35  83 CALM      29.99R

WESTERN MONTANA


CITY           SKY/WX    TMP DP  RH WIND       PRES   REMARKS
MISSOULA       CLOUDY    44  40  85 NW5       30.05R
KALISPELL      NOT AVBL

NORTH DAKOTA


CITY           SKY/WX    TMP DP  RH WIND       PRES   REMARKS
WILLISTON      CLOUDY    54  49  83 W20       29.57R
DICKINSON      CLOUDY    52  48  86 W21G28    29.63R
MINOT          CLOUDY    53  51  93 SW8       29.47R
BISMARCK       PTCLDY    56  52  86 W16       29.60R

SOUTHERN SASKATCHEWAN


CITY           SKY/WX    TMP DP  RH WIND       PRES   REMARKS
REGINA         LGT RAIN  50  50 100 NW20G26   29.52R
MOOSE JAW      LGT RAIN  52  50  93 NW13      29.58R
ESTEVAN        LGT RAIN  50  50 100 W12       29.49R FOG
SWIFT CURRENT  CLOUDY    45  43  93 W18G24    29.69R



USA.gov is the U.S. government's official web portal to all federal, state and local government web resources and services.